This is the latest recevied weather packets stored in our database for station/object N7NMS-13. If no packets are shown the sender has not sent any weather packets the latest 1 day(s).
| Time | Temp. | Humidity | Pressure | Rain* | Wind** | Luminosity | Snow |
|---|---|---|---|---|---|---|---|
| 1778007014 | 25.56° C | 29% | - | 0 mm | 0.45 m/s, 63° | - | - |
| 1778006414 | 25° C | 30% | - | 0 mm | 2.68 m/s, 198° | - | - |
| 1778005814 | 25° C | 32% | - | 0 mm | 0 m/s | - | - |
| 1778005214 | 25° C | 33% | - | 0 mm | 1.34 m/s, 177° | - | - |
| 1778004614 | 24.44° C | 33% | - | 0 mm | 1.79 m/s, 197° | - | - |
| 1778004020 | 24.44° C | 33% | - | 0 mm | 0.89 m/s, 211° | - | - |
| 1778003413 | 24.44° C | 32% | - | 0 mm | 0.89 m/s, 124° | - | - |
| 1778002813 | 24.44° C | 35% | - | 0 mm | 0.45 m/s, 165° | - | - |
| 1778002213 | 23.89° C | 39% | - | 0 mm | 1.34 m/s, 188° | - | - |
| 1778001613 | 22.78° C | 39% | - | 0 mm | 0.45 m/s, 287° | - | - |
| 1778001013 | 22.22° C | 43% | - | 0 mm | 1.34 m/s, 218° | - | - |
| 1778000412 | 22.78° C | 41% | - | 0 mm | 0.45 m/s, 186° | - | - |
| 1777999812 | 22.78° C | 41% | - | 0 mm | 0.45 m/s, 158° | - | - |
| 1777999212 | 22.78° C | 40% | - | 0 mm | 0 m/s | - | - |
| 1777998612 | 23.33° C | 44% | - | 0 mm | 1.79 m/s, 188° | - | - |
| 1777998012 | 23.33° C | 43% | - | 0 mm | 0.45 m/s, 253° | - | - |
| 1777997412 | 22.22° C | 44% | - | 0 mm | 0 m/s | - | - |
| 1777996812 | 22.22° C | 46% | - | 0 mm | 1.34 m/s, 194° | - | - |
| 1777996211 | 21.67° C | 45% | - | 0 mm | 1.79 m/s, 173° | - | - |
| 1777995611 | 22.22° C | 48% | - | 0 mm | 3.13 m/s, 187° | - | - |
| 1777995011 | 21.67° C | 47% | - | 0 mm | 1.34 m/s, 194° | - | - |
| 1777994411 | 21.67° C | 46% | - | 0 mm | 0.45 m/s, 163° | - | - |
| 1777993811 | 21.67° C | 46% | - | 0 mm | 2.24 m/s, 177° | - | - |
| 1777993211 | 22.22° C | 47% | - | 0 mm | 0.89 m/s, 170° | - | - |
| 1777992610 | 21.11° C | 45% | - | 0 mm | 1.79 m/s, 129° | - | - |
* Rain latest hour (hover to see other rain measurements)
** Current wind speed in m/s (hover to see current wind gust speed)